Hourly Data Report for June 30, 2004

SHERBROOKE A
QUEBEC

45°26'00.000" N
71°41'00.000" W
241.40 m
7028124
71610
YSC

Download Data

Hourly Data (June 2004)
Hourly Data Report for June 30, 2004
TIME
LST
Temp Definition
°C
Dew Point Definition
°C
Rel Hum Definition
%
Precip. Amount Definition
mm

Wind Dir Definition
10's deg

Wind Spd Definition
km/h
Visibility Definition
km
Stn Press Definition
kPa
Hmdx Definition


Wind Chill Definition


Weather Definition


00:00 13.1 11.7 91   21 6 15.0 98.58      
01:00 13.3 11.6 89   23 11 15.0 98.62      
02:00 12.8 11.0 89   23 11 15.0 98.67      
03:00 11.8 10.1 89   21 7 15.0 98.69      
04:00 11.4 9.8 90   19 6 15.0 98.73      
05:00 12.1 10.0 87   21 6 15.0 98.78      
06:00 12.9 10.9 88   20 7 15.0 98.82      
07:00 13.4 11.3 87   23 7 24.1 98.88     Mostly Cloudy
08:00 14.6 11.9 84   26 13 24.1 98.93     Mostly Cloudy
09:00 15.8 11.8 77   27 19 24.1 98.95     Mostly Cloudy
10:00 17.4 11.4 68   27 17 24.1 98.96     Mostly Cloudy
11:00 18.6 10.9 61   27 13 24.1 98.96     Mostly Cloudy
12:00 20.3 11.1 55   28 13 24.1 98.98     Mostly Cloudy
13:00 20.0 11.0 56   30 20 24.1 99.00     Mostly Cloudy
14:00 19.4 11.1 59   31 19 24.1 99.01     Mostly Cloudy
15:00 20.9 11.4 55   32 13 24.1 99.01     Mostly Cloudy
16:00 21.8 12.0 54   29 15 24.1 99.02     Mostly Cloudy
17:00 21.0 11.3 54   29 15 15.0 99.04      
18:00 20.4 12.0 59   31 4 15.0 99.04      
19:00 17.5 13.4 77     0 15.0 99.04      
20:00 14.2 11.7 85   13 4 15.0 99.05      
21:00 12.5 10.8 89   11 4 15.0 99.10      
22:00 12.2 10.9 92   12 6 15.0 99.11      
23:00 10.1 9.0 93   9 4 9.7 99.15      

Notes on Data Quality.

Legend

  • E = Estimated
  • M = Missing
  • NA = Not Available*
  • [empty] = Indicates an unobserved value
Date modified: